Location: *
(49.9853°N, 3.5569°E)
Time: 20:15:04
(UTC+00:00)

ARGOS - Pass Details

Date: 22 September 2019
Orbit: 821 x 834 km, 98.5° (Epoch: 13 October)

Event Time Altitude Azimuth Distance (km) Brightness Sun altitude
Exits shadow 19:39:16 19° 163° (SSE) 1,875 4.6 -18.7°
Maximum altitude 19:43:14 90° 88° (E) 834 3.1 -19.3°
Drops below altitude 10° 19:48:41 10° 345° (NNW) 2,445 6.1 -20.1°
Sets 19:51:03 0° 346° (NNW) 3,384 6.9 -20.4°
